Regional Weather Roundup
Issued by NWS Sterling, VA

Home | Current Version | Previous Version | Text Only | Print | Product List | Glossary Off
Versions: 1 2 3 4 5 6 7 8 9 10 11 12 13 14 15 16 17 18 19 20 21 22 23 24 25 26 27 28 29 30 31 32 33 34 35 36 37 38 39 40 41 42 43 44 45 46 47 48 49 50

000
ASUS41 KLWX 230610
RWRLWX

REGIONAL WEATHER ROUNDUP
NATIONAL WEATHER SERVICE BALTIMORE MD/WASHINGTON DC
100 AM EST THU FEB 23 2017

Note: "FAIR" indicates few or no clouds below 12,000 feet
with no significant weather and/or obstructions to visibility.
 TC=TEMPERATURE CELSIUS

 * =Non NWS site. Station does not report precipitation (e.g. rain,
    snow, etc.), thunder, or fog.

DCZ001-MDZ009-015-VAZ040>042-051-053>054-230700-
WASHINGTON METRO

CITY           SKY/WX    TMP DP  RH WIND       PRES   REMARKS
WASHINGTON NAT CLOUDY    54  53  97 S9        29.90F
DULLES         CLOUDY    55  51  86 S7        29.89S
ANDREWS AFB    CLOUDY    54  52  94 S7        29.89S
FT BELVOIR     CLOUDY    54  50  87 SE3       29.90S
QUANTICO       CLOUDY    51  51 100 SW3       29.91S
COLLEGE PARK*  CLOUDY    54  50  87 CALM      29.89S
LEESBURG*      CLOUDY    54  52  94 MISG      29.90S
MANASSAS*      CLOUDY    54  52  93 CALM      29.90S
GAITHERSBURG*  CLOUDY    52  46  82 CALM      29.93S

$$

MDZ006>007-011-014-230700-
BALTIMORE METRO

CITY           SKY/WX    TMP DP  RH WIND       PRES   REMARKS
BWI AIRPORT    CLOUDY    45  45 100 CALM      29.89F
MD SCIENCE CTR   N/A     50  44  80 MISG      29.90F
MARTIN STATE   FOG       45  45 100 CALM      29.91F VSB 1/4
ANNAPOLIS      FOG       48  48 100 SE5       29.90S VSB 1/4
FORT MEADE*    CLOUDY    45  41  87 CALM      29.92F

$$

MDZ012-015-019>023-230700-
MARYLAND EASTERN SHORE

CITY           SKY/WX    TMP DP  RH WIND       PRES   REMARKS
OCEAN CITY     CLOUDY    53  49  86 SW7       29.93S
SALISBURY      CLOUDY    55  54  96 S5        29.92S
BAY BRIDGE AP* FOG       50  50 100 S5        29.91S VSB 1/2
EASTON*        CLOUDY    52  50  93 SW5       29.95S

$$

MDZ017>025-230700-
SOUTHERN MARYLAND

CITY           SKY/WX    TMP DP  RH WIND       PRES   REMARKS
PATUXENT RIVER CLOUDY    53  52  96 S3        29.91F
ST INIGOES     LGT RAIN  55  52  89 CALM      29.91F
LEONARDTOWN*   CLOUDY    54  52  94 S5        29.92F

$$

MDZ003>005-230700-
NORTH CENTRAL MARYLAND

CITY           SKY/WX    TMP DP  RH WIND       PRES   REMARKS
FREDERICK*     CLOUDY    46  46 100 CALM      29.92S
HAGERSTOWN APT CLOUDY    55  48  77 SE3       29.87S
WESTMINSTER*   MOCLDY    48  46  93 CALM      29.88S

$$

MDZ501>502-230700-
WESTERN MARYLAND

CITY           SKY/WX    TMP DP  RH WIND       PRES   REMARKS
OAKLAND*       FOG       50  50 100 SW7       29.88F VSB 3/4
CUMBERLAND*    CLOUDY    55  45  67 SE3       29.90S

$$

VAZ025>031-230700-
SHENANDOAH VALLEY

CITY           SKY/WX    TMP DP  RH WIND       PRES   REMARKS
WINCHESTER*    CLOUDY    55  50  82 SW8       29.88R
FRONT ROYAL*   CLOUDY    57  50  77 SW6       29.87S
LURAY*         CLOUDY    55  52  88 SW6       29.89S
NEW MARKET*    CLOUDY    55  49  82 SW7       29.89F
STAUNTON*      CLOUDY    52  50  90 CALM      29.93S
WAYNESBORO*    CLOUDY    49  48  96 CALM      29.92S

$$

WVZ021-048>050-054>055-230700-
EASTERN WEST VIRGINIA PANHANDLE

CITY           SKY/WX    TMP DP  RH WIND       PRES   REMARKS
MARTINSBURG    CLOUDY    51  45  79 CALM      29.87R
PETERSBURG*    CLOUDY    61  52  71 S8        29.88S

$$

VAZ036>039-050-230700-
CENTRAL FOOTHILLS

CITY           SKY/WX    TMP DP  RH WIND       PRES   REMARKS
CHARLOTTESVILL CLOUDY    55  53  93 S7        29.90F
CULPEPER*      CLOUDY    56  54  92 S5        29.91S
ORANGE*        CLOUDY    54  52  94 S6        29.92S
GORDONSVILLE*  CLOUDY    55  54  97 SW7       29.91S
WARRENTON*     CLOUDY    56  51  83 SW5       29.89S

$$

VAZ055>057-230700-
NORTH AND CENTRAL PIEDMONT

CITY           SKY/WX    TMP DP  RH WIND       PRES   REMARKS
FREDERICKSBRG* CLOUDY    57  56  95 SW10G17   29.90S
STAFFORD*      CLOUDY    55  54  99 CALM      29.94S

$$

NCZ024-NYZ072-PAZ021-071-VAZ022-071-230700-
OTHER REGIONAL OBSERVATIONS

CITY           SKY/WX    TMP DP  RH WIND       PRES   REMARKS
NEW YORK CITY  PTCLDY    52  42  69 CALM      29.90S
PHILADELPHIA   MOCLDY    46  43  89 CALM      29.91S FOG
PITTSBURGH     CLOUDY    56  52  86 SW10      29.84S
ROANOKE        FOG       52  52 100 CALM      29.95S VSB 1/4
RICHMOND       CLOUDY    54  53  97 CALM      29.92F
RALEIGH        CLOUDY    55  52  89 CALM      29.93F

$$

ANZ530>537-230700-
MARINE OBSERVATIONS

STATION/POSITION TIME  TEMP    WIND        PRES
                       AIR SEA DIR/SP/G
                 (UTC) (F)     (DEG/KT/KT) (MB)
THOMAS PT LIGHT  0600   46 42  200/  8/  8   N/A
BALT KEY BRIDGE  0548   45     120/  5/  5 1012.3F
COVE POINT       0548   47     190/  8/  8 1013.4F
LEWISETTA        0548   56 44  230/  4/  5 1012.8F
SOLOMONS ISLAND  0542   50 44   90/  5/  5   N/A
PINEY POINT      0542          170/  3/  4   N/A

$$




USA.gov is the U.S. government's official web portal to all federal, state and local government web resources and services.